Volver al catálogo

OPS 4467 A

ActivoMilitarPO
NORAD 812·PAYLOAD·🇺🇸 United States

Lanzado Jun 18, 1964 desde Vandenberg Space Force Base

Loading…

Próximos Pases (próximas 24 horas)

TLE

ActualizadoSource: Space-Track

Época: Sep 14, 2026, 10:41 UTC

1 00812U 64031A   26257.44550166  .00000024  00000-0  33620-4 0  9992
2 00812  99.8324  63.2681 0005359 188.8819 171.2263 14.24611149229007

Sigue OPS 4467 A en tiempo real con AllMySat

Download on the App Store